Location: Tel Aviv
(32.0670°N, 34.7670°E)
Time: 02:16:10
(UTC+03:00)

Tiros 1 - Pass Details

Date: 20 January 2022
Orbit: 629 x 663 km, 48.4° (Epoch: 26 May)

Event Time Altitude Azimuth Distance (km) Brightness Sun altitude
Rises 00:14:52 0° 247° (WSW) 2,984 - -77.0°
Reaches altitude 10° 00:17:19 10° 254° (WSW) 2,072 - -76.8°
Maximum altitude 00:21:52 42° 326° (NW) 934 - -76.3°
Drops below altitude 10° 00:26:25 10° 38° (NE) 2,067 - -75.8°
Sets 00:28:52 0° 45° (NE) 2,975 - -75.5°
